Weather History for Cheyenne, WY

Change the Weather History Date:

Friday, July 12, 2013

  Actual Average Record
Temperature  
Mean Temperature 76 °F 70 °F  
Max Temperature 88 °F 84 °F 95 °F (1939)
Min Temperature 63 °F 55 °F 40 °F (1922)
Degree Days  
Heating Degree Days 0 1  
Month to date heating degree days 0 12  
Since 1 June heating degree days 62 146  
Since 1 July heating degree days 0 12  
Cooling Degree Days 11 5  
Month to date cooling degree days 87 54  
Year to date cooling degree days 210 104  
Since 1 June cooling degree days 204 101  
Growing Degree Days 26 (Base 50)    
Moisture  
Dew Point 53 °F    
Average Humidity 54    
Maximum Humidity 84    
Minimum Humidity 24    
Precipitation  
Precipitation 0.03 in 0.06 in 2.43 in (2011)
Month to date precipitation 0.16 0.72  
Year to date precipitation 5.80 9.03  
Snow  
Snow 0.00 in 0.00 in - ()
Month to date snowfall 0.0 0.0  
Since 1 July snowfall 0.0 0.0  
Snow Depth 0.00 in    
Sea Level Pressure  
Sea Level Pressure 29.88 in    
Wind  
Wind Speed 8 mph (WNW)    
Max Wind Speed 23 mph    
Max Gust Speed 31 mph    
Visibility 10 miles    
Events Rain , Thunderstorm    
T = Trace of Precipitation, MM = Missing Value Source: NWS Daily Summary

Daily Weather History Graph

Daily Weather History Graph

Search for Another Location

Airport:

Trip Planner

Search our weather history database for the weather conditions in past years. The results will help you decide how hot, cold, wet, or windy it might be!

Date:

Astronomy

Jul. 12, 2013 Rise Set
Actual Time 5:37 AM MDT 8:32 PM MDT
Civil Twilight 5:04 AM MDT 9:04 PM MDT
Nautical Twilight 4:22 AM MDT 9:46 PM MDT
Astronomical Twilight 3:34 AM MDT 10:34 PM MDT
Moon 9:59 AM MDT (7/12) 10:40 PM MDT (7/12)
Length of Visible Light 16h 00m
Length of Day
14h 54m
Waxing Crescent, 18% of the Moon is Illuminated
Jul 12
Waxing Crescent
Jul 15
First Quarter
Jul 22
Full
Jul 29
Last Quarter
Aug 6
New

Hourly Weather History & Observations

Time (MDT) Temp. Dew Point Humidity Pressure Visibility Wind Dir Wind Speed Gust Speed Precip Events Conditions
12:53 AM 75.0 °F 48.9 °F 40% 29.72 in 10.0 mi SSW 19.6 mph 26.5 mph N/A   Clear
1:53 AM 75.9 °F 43.0 °F 31% 29.70 in 10.0 mi WSW 12.7 mph - N/A   Clear
2:53 AM 73.0 °F 46.0 °F 38% 29.72 in 10.0 mi West 11.5 mph - N/A   Clear
3:53 AM 71.1 °F 46.0 °F 41% 29.73 in 10.0 mi WNW 4.6 mph - N/A   Clear
4:53 AM 66.9 °F 48.0 °F 51% 29.75 in 10.0 mi WSW 3.5 mph - N/A   Clear
5:53 AM 68.0 °F 48.9 °F 50% 29.76 in 10.0 mi NW 5.8 mph - N/A   Clear
6:53 AM 70.0 °F 50.0 °F 49% 29.76 in 10.0 mi NNW 11.5 mph - N/A   Clear
7:53 AM 71.1 °F 51.1 °F 49% 29.79 in 10.0 mi North 6.9 mph - N/A   Clear
8:53 AM 73.9 °F 50.0 °F 43% 29.81 in 10.0 mi North 11.5 mph 18.4 mph N/A   Clear
9:53 AM 75.9 °F 50.0 °F 40% 29.81 in 10.0 mi North 12.7 mph - N/A   Clear
10:53 AM 79.0 °F 50.0 °F 36% 29.83 in 10.0 mi NNW 6.9 mph - N/A   Scattered Clouds
11:53 AM 82.0 °F 50.0 °F 33% 29.83 in 10.0 mi NE 6.9 mph - N/A   Clear
12:53 PM 82.9 °F 48.0 °F 29% 29.81 in 10.0 mi Calm Calm - N/A   Clear
1:53 PM 88.0 °F 46.0 °F 23% 29.78 in 10.0 mi South 10.4 mph - N/A   Partly Cloudy
2:45 PM 78.8 °F 50.0 °F 36% 30.10 in 10.0 mi WNW 8.1 mph 27.6 mph N/A   Mostly Cloudy
2:53 PM 80.1 °F 46.9 °F 31% 29.81 in 10.0 mi NW 9.2 mph - N/A   Mostly Cloudy
3:27 PM 78.8 °F 50.0 °F 36% 30.11 in 10.0 mi West 11.5 mph - 0.00 in Rain , Thunderstorm Light Rain
3:42 PM 73.4 °F 55.4 °F 53% 30.13 in 9.0 mi WSW 17.3 mph - 0.00 in Rain Light Rain
3:53 PM 71.1 °F 57.0 °F 61% 29.88 in 6.0 mi SW 18.4 mph - 0.00 in Rain Light Rain
4:20 PM 68.0 °F 59.0 °F 73% 30.14 in 10.0 mi West 11.5 mph - 0.02 in Rain Light Rain
4:49 PM 68.0 °F 57.2 °F 68% 30.15 in 6.0 mi WNW 8.1 mph - 0.03 in Rain , Thunderstorm Light Rain
4:53 PM 69.1 °F 57.9 °F 68% 29.90 in 10.0 mi Calm Calm - 0.03 in Rain , Thunderstorm Light Rain
5:04 PM 69.8 °F 60.8 °F 73% 30.15 in 10.0 mi Calm Calm - 0.00 in Rain Light Rain
5:53 PM 70.0 °F 59.0 °F 68% 29.90 in 10.0 mi SE 8.1 mph - 0.00 in   Scattered Clouds
6:53 PM 69.1 °F 55.9 °F 63% 29.88 in 10.0 mi SSE 16.1 mph 24.2 mph N/A   Overcast
7:53 PM 68.0 °F 57.0 °F 68% 29.87 in 10.0 mi Calm Calm - N/A   Partly Cloudy
8:53 PM 66.9 °F 57.9 °F 73% 29.90 in 10.0 mi East 4.6 mph - N/A   Mostly Cloudy
9:53 PM 66.0 °F 57.9 °F 75% 29.92 in 10.0 mi NNW 10.4 mph - 0.00 in   Overcast
10:53 PM 64.9 °F 59.0 °F 81% 29.93 in 10.0 mi East 6.9 mph - N/A   Scattered Clouds
11:53 PM 64.0 °F 57.9 °F 80% 29.89 in 10.0 mi East 4.6 mph - N/A   Clear